Location: Unspecified
(0.0000°N, 0.0000°E)
Time: 20:00:59
(UTC+00:00)

THORAD DELTA 1 DEB - Pass Details

Date: 22 February 2026
Orbit: 1451 x 1738 km, 101.5° (Epoch: 9 March)

Event Time Altitude Azimuth Distance (km) Brightness Sun altitude
Rises 19:49:51 0° 152° (SSE) 4,673 ? -23.7°
Reaches altitude 10° 19:52:51 10° 147° (SSE) 3,658 ? -24.5°
Maximum altitude 20:00:56 49° 74° (ENE) 1,818 ? -26.4°
Drops below altitude 10° 20:08:47 10° 2° (N) 3,560 ? -28.4°
Sets 20:11:38 0° 357° (N) 4,539 ? -29.1°
